Tracking 25648 objects as of 17-May-2022
HD Live streaming from Space Station
objects crossing your sky now

FLOCK 3K 4

Track FLOCK 3K 4 now!
10-day predictions
FLOCK 3K 4 is classified as:


NORAD ID: 43893
Int'l Code: 2018-111T
Perigee: 450.5 km
Apogee: 475.5 km
Inclination: 97.2 °
Period: 93.7 minutes
Semi major axis: 6834 km
RCS: Unknown
Launch date: December 27, 2018
Source: United States (US)
Launch site: VOSTOCHNY COSMODROME (VOSTO)
aabbcc
Your satellite tracking list
Your tracking list is empty




NASA's NSSDC Master Catalog

Two Line Element Set (TLE):
1 43893U 18111T   22136.50079390  .00073626  00000-0  20285-2 0  9999
2 43893  97.1974  27.7377 0018307 179.2880 180.8394 15.36696128188662
Source of the keplerian elements: AFSPC